Weather Roundup
Issued by NWS Springfield, MO

Home | Current Version | Previous Version | Text Only | Print | Product List | Glossary On
Versions: 1 2 3 4 5 6 7 8 9 10 11 12 13 14 15 16 17 18 19 20 21 22 23 24 25 26 27 28 29 30 31 32 33 34 35 36 37 38 39 40 41 42 43 44 45 46 47 48 49 50
000
NZUS99 KSGF 041807
HRRSGF

HOURLY WEATHER
NATIONAL WEATHER SERVICE SPRINGFIELD MO
100 PM CDT SAT JUL 04 2015

......SGF CWA......

CITY           SKY/WX    TMP DP  RH WIND       PRES   REMARKS
SPRINGFIELD    MOSUNNY   81  64  56 S3        30.01F
6HR MIN TEMP:  66; 6HR MAX TEMP:  82;

JOPLIN         MOSUNNY   82  67  60 E7        30.00F
6HR MIN TEMP:  68; 6HR MAX TEMP:  83;

WEST PLAINS    PTSUNNY   79  67  66 SE3       30.03F
6HR MIN TEMP:  66; 6HR MAX TEMP:  79;

ROLLA          MOSUNNY   78  64  61 VRB3      30.02F
6HR MIN TEMP:  63; 6HR MAX TEMP:  78;

OSAGE BEACH    MOSUNNY   79  61  53 E6        30.02F
BRANSON        CLOUDY    81  70  69 SE6       30.03S

......SURROUNDING SGF CWA......

CITY           SKY/WX    TMP DP  RH WIND       PRES   REMARKS
CHANUTE        SUNNY     82  61  48 E6        30.00F
PARSONS        MOSUNNY   85  68  56 VRB5      30.00F
COFFEYVILLE    MOSUNNY   85  66  53 VRB3      29.98F
EMPORIA        MOSUNNY   82  60  47 MISG      30.00F
GROVE OK       PTSUNNY   86  68  54 CALM      30.00S
ROGERS AR      PTSUNNY   80  68  66 MISG      30.01F
SILOAM SPRINGS SUNNY     81  66  61 E6          N/A
HARRISON AR    MOSUNNY   80  68  66 E6        30.02F
NEAR YELLVILLE MOSUNNY   79  70  73 SE6       29.99S

......KANSAS AND MISSOURI......

CITY           SKY/WX    TMP DP  RH WIND       PRES   REMARKS
KANSAS CTY INT PTSUNNY   78  61  55 SE6       30.02S
DOWNTOWN KC    SUNNY     81  62  52 E8        30.00F
COLUMBIA       PTSUNNY   79  62  56 VRB3      30.02F
SEDALIA        SUNNY     81  63  54 SE8       30.03F
ST JOSEPH      SUNNY     79  60  52 E5        30.01F
ST LOUIS       MOSUNNY   82  61  48 SE5       30.03S
SPIRIT OF STL  CLOUDY    79  64  60 CALM      30.01F
KIRKSVILLE     SUNNY     78  61  55 VRB7      30.03F
WICHITA        MOSUNNY   86  64  47 E8        29.97F
TOPEKA         SUNNY     80  62  54 SE9       30.00F
OLATHE         SUNNY     77  59  53 VRB6      30.02S

......TENNESSEE......

CITY           SKY/WX    TMP DP  RH WIND       PRES   REMARKS
MEMPHIS        LGT RAIN  74  70  87 S9        30.01S
NASHVILLE      CLOUDY    80  71  74 SW7       30.00F

......ARKANSAS.......

CITY           SKY/WX    TMP DP  RH WIND       PRES   REMARKS
FAYETTEVILLE   PTSUNNY   82  69  64 VRB3      30.00F
FT SMITH       SUNNY     84  70  62 NE6       29.97F
LITTLE ROCK    PTSUNNY   79  68  69 SW5       29.99F

......OKLAHOMA.......

CITY           SKY/WX    TMP DP  RH WIND       PRES   REMARKS
TULSA          MOSUNNY   86  68  54 VRB5      29.97F
PONCA CITY     MOSUNNY   87  67  51 E10       29.96F HX  90
MCALESTER      SUNNY     86  73  65 CALM      29.97F HX  93
OKLAHOMA CITY  MOSUNNY   84  72  67 SE7       29.98S

......IOWA............

CITY           SKY/WX    TMP DP  RH WIND       PRES   REMARKS
DES MOINES     MOSUNNY   80  59  48 S9        30.00F
QUAD CITIES    SUNNY     78  59  51 CALM      30.01F

......ILLINOIS........

CITY           SKY/WX    TMP DP  RH WIND       PRES   REMARKS
QUINCY         MOSUNNY   79  61  53 W7        30.02F
CHICAGO        MOSUNNY   79  56  45 W7        30.00F



USA.gov is the U.S. government's official web portal to all federal, state and local government web resources and services.